GEFSNE_500_meanwind_198.txt.gz
Wind_Speed
15 15 15 16 17 17 17 18 18 19 20 22 21 21 21 20 21 21 22 22 23 24 26 26 27 28 29 30 31 31 32 33 33 33 34 34 33 33
14 14 14 15 16 17 18 18 18 18 18 20 21 21 21 21 21 22 23 24 24 25 26 26 27 28 29 30 30 31 32 34 35 35 35 34 34 34
13 13 14 15 17 17 17 18 19 19 19 21 22 22 21 22 22 23 24 25 26 27 27 28 29 30 30 31 31 32 32 34 35 35 35 35 35 36
13 14 15 15 16 17 18 19 20 20 21 21 23 24 24 24 24 25 26 27 27 28 29 30 31 31 32 31 32 32 33 34 34 35 35 36 36 36
14 15 16 16 17 18 19 20 20 21 22 22 23 24 24 25 25 26 27 28 29 29 30 30 30 31 31 32 33 33 33 34 35 35 35 36 37 38
13 14 15 16 17 18 19 20 21 22 23 23 23 24 25 26 26 27 28 28 30 30 30 30 31 32 33 33 34 35 35 35 36 37 37 38 38 39
14 15 15 16 17 18 19 20 21 22 23 23 24 25 26 26 27 28 29 30 30 31 32 33 34 34 34 35 35 36 36 36 37 38 39 40 39 39
15 15 16 17 18 19 19 20 21 22 23 24 25 25 26 27 27 28 30 31 32 33 34 35 35 35 35 35 35 36 37 38 38 38 38 38 39 39
15 16 17 18 18 19 21 21 21 22 23 25 25 26 27 27 28 29 31 32 32 33 34 35 36 36 36 37 37 37 37 38 38 39 39 39 39 39
17 18 18 19 20 21 21 22 23 24 24 25 26 27 28 29 29 30 32 33 33 34 35 36 36 37 38 38 38 39 39 39 39 39 39 39 40 40
19 20 21 22 22 22 22 23 24 25 26 27 28 28 29 30 31 32 33 33 34 34 35 36 37 38 38 39 39 40 40 40 39 39 39 39 39 39
21 22 22 23 24 24 24 24 25 26 27 28 28 29 30 31 32 33 33 34 35 36 36 37 38 38 38 39 40 40 40 40 40 40 40 40 39 39
23 23 24 25 24 24 25 26 27 27 28 29 30 31 32 33 33 34 35 36 36 36 37 37 38 38 38 38 38 39 39 38 39 39 39 39 39 38
24 24 25 25 25 26 26 27 28 29 30 31 31 32 33 34 35 36 36 37 37 37 37 37 37 37 36 36 36 36 36 36 36 36 36 36 36 36
25 25 26 26 27 27 28 29 30 31 32 32 33 34 35 36 36 36 36 37 36 36 35 35 35 35 35 35 35 35 35 34 34 34 34 34 34 34
26 26 27 27 28 29 30 30 32 33 33 34 35 36 36 36 36 35 36 36 35 35 34 34 34 34 34 34 34 33 33 33 32 32 32 32 33 33
27 27 28 29 29 30 31 32 33 34 35 36 36 36 36 36 35 35 35 35 34 34 34 34 33 33 33 33 32 32 32 33 32 32 31 30 30 30
28 29 30 30 31 32 33 34 35 35 35 36 36 36 35 35 35 35 35 34 34 34 34 33 33 33 33 33 32 32 32 32 31 30 29 28 28 28
30 31 32 33 34 35 35 35 35 35 35 35 34 34 35 35 35 34 34 34 34 33 33 32 32 32 32 32 31 31 30 30 30 29 28 27 27 26
31 33 34 35 35 35 35 35 35 35 35 35 34 34 35 34 34 34 34 33 33 32 32 31 31 31 31 31 30 30 29 29 28 28 26 26 26 25
33 34 35 36 36 36 35 35 35 35 35 35 35 35 34 34 33 33 32 32 32 31 31 31 31 30 30 30 29 29 29 29 28 27 26 25 25 25
34 35 36 36 35 35 35 34 34 35 35 35 34 34 34 33 32 32 32 31 31 31 30 30 30 30 30 30 30 29 29 28 28 27 26 25 25 25
35 35 35 35 34 34 34 34 34 34 34 34 33 33 32 32 32 32 31 31 31 31 31 30 30 30 30 30 30 29 28 27 27 26 26 26 25 25

GEFSNE_500_meanwind_204.txt.gz
Wind_Speed
12 13 13 14 14 14 14 15 16 17 18 19 19 19 20 21 21 21 22 23 23 23 24 24 25 26 26 27 27 28 29 30 31 31 32 32 32 33
12 13 14 15 15 15 16 17 17 17 18 19 20 21 22 22 23 23 24 24 24 24 25 25 26 27 29 29 30 30 31 32 32 33 33 34 34 34
12 12 13 14 15 16 17 17 17 18 19 20 21 22 23 23 24 24 24 24 24 25 26 27 28 29 30 30 31 32 32 33 33 34 34 34 34 34
13 13 14 14 15 16 17 18 18 19 20 21 22 23 23 24 24 24 25 25 26 27 27 28 29 29 30 31 31 32 33 33 33 34 34 34 34 34
13 13 14 15 16 16 17 17 18 19 21 22 22 22 23 23 24 25 26 26 26 27 28 29 30 31 31 31 32 32 32 33 34 34 35 35 35 35
14 14 15 16 16 17 17 17 18 19 20 20 21 22 22 23 24 26 26 27 27 28 30 30 31 31 32 32 33 33 33 33 33 34 35 36 36 36
15 15 16 16 17 17 18 18 19 19 20 21 22 23 24 25 26 26 26 27 28 29 30 30 31 32 32 33 33 34 34 35 35 35 36 37 37 37
15 16 17 18 18 18 19 19 20 21 21 23 23 24 25 27 27 27 28 28 29 30 31 31 32 33 34 34 34 34 35 36 36 37 38 38 39 39
17 17 18 19 19 20 20 21 21 22 23 24 25 26 27 28 28 28 29 30 30 31 32 32 33 33 34 35 36 36 36 37 37 38 38 39 39 39
18 19 20 21 21 22 22 22 22 23 24 25 25 26 27 28 28 29 29 30 30 31 32 32 33 35 36 37 37 37 37 38 38 38 38 38 39 39
19 20 21 22 23 24 24 24 24 25 25 26 26 27 27 28 29 30 31 32 32 33 33 34 35 36 37 37 38 38 38 38 38 38 38 38 38 38
20 21 23 24 24 24 25 25 26 26 26 27 28 28 28 29 30 32 32 33 34 34 35 36 36 37 37 37 37 36 36 36 36 36 36 36 36 36
22 23 23 24 25 25 26 27 26 26 27 28 29 29 30 31 31 32 33 34 34 35 35 36 36 37 37 36 35 35 34 34 34 34 33 33 33 34
24 24 25 25 26 26 27 27 27 28 29 29 30 31 32 32 33 34 34 34 34 35 35 35 35 35 35 35 33 33 32 32 32 32 32 32 31 32
25 26 25 25 25 26 26 27 28 29 30 31 32 32 33 33 34 34 34 34 34 35 35 35 34 34 34 34 33 32 32 31 31 31 31 31 31 31
25 26 26 26 27 27 28 29 30 31 32 32 33 33 33 33 33 34 34 34 34 34 34 34 34 34 33 33 32 32 32 32 31 30 30 30 31 30
27 28 28 28 28 29 30 30 31 32 33 33 33 33 33 33 33 33 34 34 34 34 33 33 33 32 32 32 31 31 31 31 30 30 30 30 30 30
28 29 30 30 30 31 32 32 33 33 33 33 33 33 33 33 33 33 33 33 33 33 33 32 32 32 32 31 31 31 31 31 31 30 30 30 30 30
30 30 31 31 32 32 33 33 33 33 32 32 32 32 32 32 32 33 32 32 32 32 31 31 31 31 31 30 30 30 30 30 30 30 30 30 30 29
31 32 32 32 32 32 32 33 33 33 32 32 32 32 32 32 32 32 31 31 31 31 31 30 30 30 30 30 31 30 30 30 29 29 29 29 28 28
32 32 32 32 32 32 33 33 33 32 32 32 32 31 31 31 31 31 30 30 29 30 30 30 29 29 29 29 29 29 29 29 29 29 28 28 28 28
32 32 32 32 32 33 33 33 32 32 32 32 32 31 31 31 31 30 29 29 29 29 29 30 29 29 28 28 28 28 29 29 28 28 27 27 27 27
32 32 33 33 33 33 33 32 32 32 32 32 32 31 30 30 30 29 29 28 29 29 30 29 29 28 28 28 29 29 29 28 28 28 27 26 26 26

GEFSNE_500_meanwind_210.txt.gz
Wind_Speed
12 12 13 13 13 14 14 14 15 15 15 16 17 18 18 19 19 20 20 20 21 22 22 23 24 24 25 26 27 27 28 29 30 30 30 30 30 30
12 12 13 13 14 14 14 15 15 15 16 17 17 18 19 20 20 21 21 21 21 22 23 24 24 25 26 27 27 27 28 29 30 30 30 30 30 31
11 12 12 13 13 14 14 14 15 16 17 17 19 19 20 20 21 21 22 22 23 24 24 25 25 26 27 27 28 28 29 29 29 30 31 31 31 31
12 13 13 14 14 15 15 15 16 17 17 18 19 20 20 20 20 22 23 23 24 25 25 25 26 27 27 28 28 29 30 31 31 32 32 33 33 33
13 13 14 15 15 15 16 16 17 17 18 19 20 21 21 21 22 22 23 24 24 25 26 27 28 28 28 28 29 30 30 31 32 32 33 34 34 34
14 15 15 16 16 16 17 17 18 18 19 19 20 20 21 22 23 23 24 25 25 26 27 27 27 28 29 30 31 31 31 32 32 32 33 33 34 34
15 16 16 17 18 18 18 19 19 20 20 20 20 20 21 22 23 24 25 25 26 27 27 28 28 29 30 31 31 32 32 33 33 34 34 35 35 36
16 17 17 18 18 19 20 20 20 20 20 20 21 21 22 23 23 25 26 26 27 28 28 29 30 30 31 32 32 33 34 34 35 35 36 36 36 37
18 18 19 20 20 20 21 21 21 21 22 23 23 24 24 25 25 26 27 28 29 30 30 31 32 32 33 34 34 35 36 36 37 37 37 37 37 37
20 20 20 21 22 22 22 22 23 23 24 24 25 26 26 27 28 29 30 30 31 32 33 33 33 34 34 34 35 37 37 37 37 37 37 37 36 36
20 22 22 22 23 24 24 25 25 26 26 26 27 28 28 30 30 31 31 31 32 33 34 34 34 34 34 35 36 36 37 37 36 36 36 36 36 35
22 22 23 23 24 24 24 25 26 27 27 28 28 29 30 30 31 31 32 32 33 33 34 35 35 35 35 35 36 36 35 35 35 35 35 35 34 34
23 23 24 24 24 25 25 26 27 28 29 29 30 30 30 31 31 32 33 33 33 34 34 34 34 34 35 35 35 35 34 35 35 35 35 34 33 33
23 24 25 26 27 27 28 28 29 30 30 31 31 31 31 31 32 32 33 33 33 34 34 34 34 35 35 35 35 34 34 34 34 34 34 33 33 32
24 25 26 27 28 29 29 30 30 31 31 31 31 31 31 32 32 33 33 33 33 34 34 34 35 35 35 35 35 35 34 33 33 33 32 32 32 32
25 26 27 28 29 29 30 31 31 31 31 31 31 31 32 32 33 34 34 34 34 34 34 34 34 34 34 35 35 34 34 33 33 32 32 31 31 31
26 27 28 29 29 30 31 32 32 32 32 32 33 33 33 33 34 35 35 35 35 35 34 35 35 35 35 34 34 33 33 32 31 31 31 31 31 31
27 28 29 30 31 32 32 32 32 33 33 34 34 34 34 34 34 35 35 35 35 35 35 34 34 33 33 32 32 32 31 30 30 30 30 30 30 30
28 29 30 31 32 33 33 33 33 34 34 35 35 35 35 35 35 35 35 35 35 34 34 33 33 33 33 32 31 31 30 29 29 29 29 29 29 28
30 31 31 32 32 33 33 33 34 34 35 35 35 35 35 35 36 35 35 34 34 33 33 33 32 32 31 31 31 30 29 29 29 29 28 28 28 28
31 32 32 32 32 32 33 34 34 35 35 35 34 34 35 35 35 35 34 34 33 33 32 32 31 31 31 31 30 30 30 30 29 29 29 28 28 27
31 32 32 33 32 33 34 34 35 35 35 35 35 35 35 35 35 35 34 34 33 32 31 31 31 31 31 30 30 30 29 29 29 29 29 28 27 26
32 33 34 34 33 34 34 35 36 36 36 35 35 35 35 35 35 34 34 33 32 32 31 31 31 31 31 30 29 29 29 29 28 28 27 27 27 27

GEFSNE_500_meanwind_216.txt.gz
Wind_Speed
9 9 9 10 11 11 12 12 13 13 13 13 14 15 15 16 17 17 18 19 20 20 20 21 22 23 23 23 24 24 25 25 26 26 27 28 29 30
9 9 9 9 10 10 10 11 11 12 12 13 14 15 16 17 17 18 19 19 20 21 21 22 22 23 23 24 24 25 25 26 27 28 28 28 29 31
10 10 10 10 11 11 12 12 13 13 13 13 14 16 16 17 18 19 20 20 21 21 21 22 22 23 24 25 26 27 27 28 29 29 29 30 31 31
11 11 11 11 12 13 13 14 14 14 15 16 16 17 18 19 20 20 20 21 21 22 22 22 23 24 25 26 27 28 29 30 30 30 30 30 31 32
11 11 12 12 13 13 14 14 15 15 16 17 18 18 19 19 20 21 21 22 22 22 23 24 24 25 26 28 28 29 30 30 30 31 31 32 32 33
12 12 12 13 13 13 14 15 15 16 17 18 19 19 19 20 21 22 23 24 24 25 26 26 25 26 27 29 29 29 30 31 31 32 33 33 34 34
13 13 13 13 14 14 15 16 16 17 18 19 19 20 21 22 22 23 23 24 25 26 27 27 27 28 28 29 29 30 31 32 32 33 33 34 34 35
14 14 13 14 15 16 16 17 17 18 19 20 20 21 22 23 23 24 25 25 26 27 28 29 29 29 30 30 31 32 32 33 34 34 35 35 35 35
14 14 14 15 16 17 18 18 19 20 21 21 22 22 23 24 24 26 26 27 28 28 29 29 30 31 32 33 33 34 34 35 35 34 34 35 35 36
15 15 16 16 17 18 19 20 21 21 22 22 23 23 24 24 25 26 27 28 28 29 30 31 31 32 32 33 33 34 34 35 35 34 34 34 35 35
16 17 17 18 19 20 20 21 21 21 22 23 24 24 25 26 27 27 28 29 30 30 31 31 32 32 32 33 33 34 34 34 34 34 34 35 35 34
17 18 18 19 20 20 21 22 22 23 24 24 25 26 27 27 28 29 29 29 30 31 31 31 32 32 33 33 34 34 34 34 34 34 34 34 34 34
17 18 19 20 21 21 22 23 24 25 25 26 27 28 28 29 29 30 30 30 31 31 32 32 33 33 34 34 34 34 34 34 34 34 34 35 35 34
18 19 20 21 21 22 23 24 25 26 26 27 28 29 29 30 31 31 31 31 31 32 33 33 34 34 34 35 34 34 33 33 33 34 34 34 34 33
20 21 21 21 22 23 24 24 25 26 28 28 29 29 30 31 32 32 32 32 33 34 35 35 35 34 34 34 34 34 33 33 33 32 32 33 33 32
21 22 22 23 23 24 25 26 27 28 29 29 30 30 31 32 33 33 33 33 34 35 35 35 35 35 35 34 34 34 34 33 32 32 31 31 31 30
22 23 23 24 24 25 26 28 29 30 30 31 31 32 32 33 33 34 34 34 35 35 35 35 35 35 34 34 34 34 33 33 32 31 30 30 30 29
23 24 24 25 26 27 28 29 30 31 32 32 32 33 33 33 34 35 35 35 35 34 34 34 34 34 34 34 34 33 33 32 31 30 30 29 29 29
25 25 26 26 27 28 29 30 31 32 33 33 33 34 34 35 35 36 36 35 35 35 35 34 34 34 34 33 33 32 31 30 29 29 29 29 29 29
26 26 27 27 28 29 30 31 32 33 33 33 34 35 35 35 36 36 36 35 35 35 34 34 34 33 33 32 31 31 31 30 29 29 29 29 29 28
26 27 28 29 30 31 31 32 33 33 34 34 35 35 36 36 36 36 36 35 35 35 34 34 34 33 33 32 31 30 30 30 29 29 29 29 28 28
27 28 29 30 31 32 33 33 34 34 35 35 36 36 36 37 36 36 36 35 35 35 34 34 33 32 32 32 31 30 30 30 30 30 29 29 28 27
28 30 31 32 32 33 34 34 35 36 36 36 37 37 37 37 36 36 36 35 35 34 34 33 32 31 32 31 31 30 30 30 29 29 29 29 28 28

GEFSNE_500_meanwind_222.txt.gz
Wind_Speed
11 11 12 12 13 12 13 13 13 13 13 14 15 16 17 17 18 19 19 20 21 21 22 22 23 23 24 25 25 26 26 27 28 28 28 28 29 29
12 12 12 12 12 12 12 13 14 14 15 15 16 17 18 19 20 20 20 21 21 22 22 23 24 25 26 26 27 28 28 29 29 29 30 30 30 30
12 12 12 13 13 13 14 14 15 16 17 17 18 19 20 20 20 21 22 23 23 24 25 25 26 27 28 28 28 29 30 30 31 31 31 31 31 31
13 13 14 14 14 14 15 16 16 17 18 18 19 20 20 21 21 22 23 23 25 26 26 27 28 29 29 29 30 30 31 31 31 32 32 33 33 33
14 14 14 14 14 15 16 17 17 18 18 19 20 20 20 21 21 23 24 25 26 26 27 28 29 30 30 30 31 31 32 32 33 33 34 34 34 35
15 15 14 14 15 16 17 17 18 18 18 20 20 21 20 21 22 23 24 25 25 25 27 28 29 30 29 30 31 31 32 32 33 34 34 34 34 34
15 14 15 16 16 17 18 18 19 19 20 20 21 21 21 22 23 24 24 24 25 26 27 28 28 29 29 30 30 31 32 33 33 34 34 35 34 35
14 15 16 16 17 18 18 19 19 20 20 21 21 21 22 23 23 24 24 25 26 26 27 28 29 30 30 30 31 32 33 33 33 33 34 35 34 35
15 15 16 16 17 18 18 19 20 20 20 21 22 22 23 24 24 24 25 26 26 27 27 29 30 30 31 31 32 33 33 33 34 34 35 35 35 35
15 16 16 17 18 19 19 19 19 20 21 21 22 23 24 24 25 26 27 27 28 29 29 30 31 31 31 32 33 33 33 34 34 34 34 34 34 34
16 17 17 18 18 19 19 19 20 21 22 22 23 24 25 25 26 27 28 29 29 30 30 31 32 32 33 33 33 33 34 34 35 34 35 34 33 34
17 17 17 18 18 19 19 20 21 22 22 23 24 25 26 27 28 28 29 29 30 30 31 32 32 33 33 33 34 34 34 34 34 34 34 34 34 34
18 18 19 19 20 20 21 21 22 23 24 25 25 26 27 28 29 29 30 30 31 31 32 32 33 33 33 34 35 35 35 34 34 34 34 34 35 34
19 20 20 20 21 22 22 23 23 24 25 26 27 28 29 29 30 30 30 31 31 32 32 33 33 33 34 34 35 35 35 34 34 34 34 35 35 34
21 21 22 22 23 23 23 24 25 26 27 28 29 29 30 30 31 31 32 32 33 33 34 34 34 35 35 35 35 35 34 34 34 34 34 34 34 34
23 23 23 24 24 24 25 26 27 27 28 29 30 30 31 32 32 33 33 33 33 34 34 35 35 35 35 35 35 35 34 34 34 34 34 34 34 33
24 24 24 25 25 26 26 27 28 28 29 30 31 31 32 33 33 34 34 34 34 35 35 36 36 36 35 35 35 34 34 33 34 34 34 33 33 31
24 24 25 26 26 27 28 29 30 30 30 31 31 32 33 33 34 35 35 35 35 36 36 36 36 36 35 35 34 33 33 33 33 33 33 32 31 30
25 26 27 27 27 28 29 30 31 31 31 32 33 34 34 35 35 36 36 36 37 36 36 36 36 36 35 34 34 34 33 33 33 33 32 31 30 29
27 28 29 29 29 30 31 32 32 33 33 34 35 35 36 36 36 37 37 37 37 37 37 37 37 36 35 34 34 33 33 33 32 32 31 30 29 29
29 29 30 31 31 32 33 33 34 35 35 35 36 37 37 37 37 37 37 38 38 37 38 37 36 36 36 35 34 33 33 32 32 31 30 29 29 28
31 32 32 32 33 34 34 35 35 35 36 37 38 38 38 38 38 38 38 38 38 37 37 36 36 36 35 35 34 33 33 32 32 31 31 30 29 29
32 33 33 33 34 35 35 36 36 36 37 37 38 39 39 38 38 38 38 38 37 37 36 36 36 36 35 35 35 34 33 33 32 31 31 31 30 29

GEFSNE_500_meanwind_228.txt.gz
Wind_Speed
10 10 10 10 11 11 11 11 12 13 13 14 14 15 15 15 16 17 18 18 19 20 20 21 22 23 24 24 25 26 27 27 27 28 29 29 30 30
11 11 11 11 12 13 12 12 13 13 13 14 15 15 16 17 17 18 18 19 20 20 21 22 23 24 25 26 27 28 29 29 29 30 31 31 31 31
12 12 13 13 14 14 13 13 14 14 15 15 16 16 17 17 18 18 19 20 21 21 22 23 24 25 26 26 27 28 29 30 31 31 32 32 32 31
12 13 13 13 14 14 14 15 15 16 16 16 17 17 18 18 18 19 20 21 22 22 23 24 24 25 26 26 27 27 29 30 31 32 32 32 32 32
13 13 14 14 14 15 15 16 16 17 17 17 17 18 18 19 19 20 20 22 23 24 24 25 26 26 26 26 27 28 29 30 31 32 32 32 32 32
14 14 14 14 14 15 15 16 16 17 17 17 17 18 18 19 19 21 21 23 24 24 24 25 26 26 27 28 29 29 30 31 31 31 31 32 33 33
15 15 14 14 14 14 15 15 16 16 17 17 17 18 19 19 20 22 22 23 24 25 25 26 27 27 27 28 29 29 30 31 31 31 32 32 33 33
15 15 14 15 15 15 15 16 16 17 17 17 18 18 19 20 21 22 23 24 24 25 26 27 27 28 28 29 29 30 30 30 31 32 32 33 33 34
15 15 15 15 15 15 15 16 16 17 17 17 18 19 20 21 22 23 24 24 25 26 27 28 29 30 30 31 31 31 31 31 31 32 33 33 33 34
15 16 16 15 16 16 16 16 17 17 18 18 19 20 21 22 23 24 25 26 26 27 27 28 29 30 31 31 31 31 31 32 32 32 32 32 32 33
16 16 16 16 16 17 17 18 18 19 19 20 21 22 23 24 25 25 26 27 27 28 28 29 29 30 31 31 32 32 32 32 32 32 33 33 33 33
17 17 17 17 18 18 19 19 19 20 21 22 22 23 24 25 25 26 27 27 28 28 29 30 30 31 31 32 32 32 32 32 32 33 33 33 33 33
18 19 18 19 20 20 20 21 21 22 23 23 23 24 25 26 27 27 28 28 29 30 30 31 31 32 32 33 33 33 33 33 33 33 33 33 33 33
20 20 21 21 22 22 23 23 23 23 24 24 25 26 26 27 28 28 29 30 30 31 31 32 33 33 33 33 33 34 34 34 34 33 33 32 32 32
21 22 22 23 23 24 24 24 25 25 26 26 26 27 28 28 29 30 30 31 31 32 32 33 33 33 33 34 34 34 34 34 34 34 33 33 33 33
22 23 23 23 24 24 24 25 26 27 27 27 28 28 29 30 30 31 32 33 33 33 33 33 34 34 34 34 35 35 35 34 34 34 34 34 33 33
24 24 24 25 25 26 26 27 27 28 28 28 29 30 30 31 32 32 33 34 34 34 34 35 35 35 35 35 36 35 35 35 35 34 34 33 33 33
26 26 26 26 27 27 28 28 29 29 29 30 31 32 32 33 33 34 35 35 36 36 36 36 36 37 37 36 36 35 34 35 35 34 33 33 33 32
28 28 28 28 28 28 29 30 30 30 31 32 32 33 33 34 34 35 36 37 37 37 38 37 37 37 36 35 35 34 34 34 34 33 33 33 33 33
29 29 29 30 30 30 31 32 32 32 32 33 33 34 34 35 36 37 37 37 37 38 38 37 37 37 36 35 34 34 34 33 33 33 33 32 32 32
31 31 31 31 32 32 32 33 33 33 34 34 34 35 35 35 36 37 37 37 37 38 37 37 36 35 35 35 35 34 34 34 33 33 32 31 31 30
32 32 32 33 33 33 33 34 34 34 35 35 35 35 35 36 37 37 37 37 37 37 36 36 36 36 35 35 35 35 34 33 33 32 31 31 30 29
32 33 34 34 34 35 35 35 35 34 34 35 35 35 35 36 36 36 36 35 35 36 35 35 35 35 35 35 34 34 33 33 32 32 31 30 30 30

GEFSNE_500_meanwind_234.txt.gz
Wind_Speed
11 11 11 12 13 13 13 14 13 13 13 13 13 14 14 14 14 15 15 16 16 17 17 18 19 20 20 20 21 22 23 23 24 25 26 27 27 27
11 12 12 13 14 14 14 14 14 14 14 14 15 15 15 14 14 15 15 16 16 17 17 19 20 21 21 22 23 23 24 24 25 26 27 28 29 29
12 13 13 13 14 14 14 14 14 14 14 15 16 16 15 16 16 16 17 17 18 18 19 19 20 21 21 22 23 23 24 25 26 27 28 29 30 30
13 13 13 13 14 14 14 14 14 14 14 15 15 16 16 17 17 17 17 18 19 19 20 21 21 22 22 23 23 24 25 26 26 27 28 28 29 29
14 14 14 14 14 15 15 15 15 15 15 16 16 17 17 17 17 17 17 18 19 20 21 22 23 24 24 25 25 26 27 27 28 29 29 29 30 30
14 14 15 15 16 16 15 15 15 16 16 16 17 16 17 17 17 18 19 19 20 21 22 23 24 24 25 26 27 28 28 29 29 30 30 31 32 32
16 15 15 16 16 16 16 16 16 16 16 15 16 16 17 17 18 19 19 21 22 22 23 24 25 26 26 26 27 28 29 30 30 31 31 32 33 33
17 16 16 16 17 17 17 16 16 16 16 16 16 16 17 18 18 19 20 21 22 23 24 25 26 26 27 28 28 28 29 30 31 31 32 32 33 32
17 17 17 17 17 17 17 17 17 17 17 17 17 17 18 19 20 21 22 22 24 24 25 26 26 27 27 29 29 29 30 30 31 31 31 32 32 32
18 18 18 18 17 17 18 18 18 18 19 19 19 19 20 21 22 22 23 24 25 25 26 27 28 29 28 28 29 29 30 30 30 30 31 31 31 31
19 19 19 19 19 19 19 20 20 20 20 20 21 21 22 22 23 23 24 25 26 27 27 28 29 30 29 29 30 30 30 30 31 31 31 31 31 30
20 21 21 20 21 21 21 21 21 21 22 22 22 23 23 24 24 25 26 27 28 28 28 29 30 31 31 31 30 30 31 31 32 32 32 32 32 32
23 23 23 22 22 22 22 23 23 22 23 23 23 24 25 25 26 26 27 28 29 29 29 30 31 32 32 32 32 32 33 33 33 34 34 34 34 34
24 24 23 23 23 24 24 24 24 24 24 24 25 25 26 27 27 28 29 29 30 30 31 31 32 33 33 33 33 34 34 34 34 34 35 35 35 34
26 25 24 24 25 26 26 25 25 25 25 26 26 27 27 28 29 29 29 30 31 32 33 33 33 33 33 34 35 35 35 35 35 35 35 35 35 35
26 26 25 25 25 26 26 26 27 27 27 28 28 29 29 30 30 31 31 32 32 33 33 34 34 34 35 35 36 36 36 36 35 35 35 35 35 34
26 26 26 26 26 26 27 27 28 29 29 30 30 30 31 31 32 32 33 33 34 34 34 35 35 35 35 35 36 36 36 35 35 36 35 35 34 34
27 27 27 27 28 28 28 29 30 30 31 31 32 32 32 33 34 34 34 34 35 35 35 35 35 36 36 36 37 37 36 36 36 36 35 34 34 33
29 28 28 29 29 30 30 30 31 31 32 32 32 33 33 34 35 35 35 35 35 35 35 35 35 35 36 36 37 37 37 36 35 35 34 33 33 32
31 30 30 30 31 31 31 32 32 32 33 33 33 34 34 34 35 35 35 35 34 34 35 35 35 35 36 36 36 36 36 35 34 34 34 33 32 32
32 32 32 32 32 32 33 33 33 33 34 34 34 35 35 35 35 35 35 35 35 35 35 35 35 35 36 36 36 35 35 34 34 34 34 33 32 32
33 33 33 33 33 34 34 34 34 34 34 35 35 36 35 35 35 35 35 35 35 35 34 35 35 36 36 36 36 35 34 34 34 34 34 34 33 33
34 34 34 34 34 34 34 34 35 35 35 35 36 35 35 34 34 34 35 35 35 36 36 36 36 36 36 36 35 35 35 34 34 33 33 33 33 33

GEFSNE_500_meanwind_240.txt.gz
Wind_Speed
10 10 10 10 10 10 10 11 11 11 12 12 12 12 12 13 13 14 14 13 13 13 14 14 14 15 17 18 19 20 21 21 22 23 24 26 27 27
10 10 10 10 10 10 11 11 11 12 12 12 13 13 13 13 13 14 14 14 14 15 15 15 15 16 17 18 19 20 21 22 23 24 24 26 27 28
10 11 11 11 11 11 12 12 12 13 13 13 14 14 14 14 14 14 14 14 15 15 15 16 17 18 18 19 20 21 22 23 24 25 26 27 28 29
11 12 12 13 12 13 14 14 14 14 14 14 14 14 14 14 14 14 14 15 15 16 16 17 18 19 20 20 21 22 23 24 25 26 26 27 29 30
12 13 14 14 14 15 15 15 14 14 14 14 14 14 14 15 15 15 15 16 16 17 18 19 19 20 22 23 23 23 23 24 25 26 27 28 29 30
14 14 14 15 15 15 16 15 15 14 14 14 14 14 15 15 15 16 16 17 18 18 19 20 21 22 22 23 23 23 24 24 25 26 27 27 28 29
16 16 15 16 16 16 16 15 15 15 15 15 16 15 15 15 16 16 17 18 19 19 20 21 21 22 23 23 24 24 25 25 26 27 27 28 28 29
17 17 17 17 17 17 17 16 16 16 16 16 16 16 16 17 17 18 18 19 20 20 21 22 23 23 24 24 25 25 26 27 28 28 28 29 30 30
17 17 18 18 18 18 17 17 17 17 17 17 17 17 18 18 19 20 20 21 21 22 22 23 24 24 25 25 26 27 28 28 28 29 29 29 30 30
18 18 19 19 18 18 18 18 19 19 19 19 18 18 19 20 21 21 21 22 23 23 23 24 25 26 27 27 28 28 29 29 29 30 30 30 30 30
19 20 20 20 20 20 20 20 20 20 20 20 20 21 21 22 22 22 23 23 24 25 25 26 27 27 28 29 29 30 30 30 30 30 30 31 31 31
21 21 21 21 21 21 21 21 21 22 21 21 21 21 22 23 23 24 24 25 26 26 27 28 28 29 29 30 30 31 31 31 31 31 32 32 32 33
23 23 23 23 23 22 23 23 23 23 23 23 23 23 23 24 25 25 26 27 28 28 29 29 30 31 31 31 31 32 32 33 33 33 33 33 33 33
25 25 25 24 24 23 24 24 24 24 24 24 24 25 25 26 27 27 28 29 30 30 31 31 32 32 32 33 33 34 34 34 34 35 35 34 34 34
26 26 26 25 25 25 25 24 25 25 25 25 25 26 27 28 28 29 30 30 31 32 32 32 33 33 33 34 34 34 34 35 35 35 35 35 34 34
26 25 25 25 25 25 25 25 25 25 26 26 27 27 28 29 29 30 30 31 31 32 33 33 34 34 34 34 34 34 34 34 35 35 34 34 34 34
26 26 26 25 25 25 26 26 26 27 28 28 29 29 29 30 30 31 31 32 32 32 32 33 34 34 34 34 34 34 35 35 35 35 34 34 34 33
27 26 27 26 26 26 27 28 28 29 29 29 30 30 31 32 32 32 32 32 32 33 33 33 33 34 35 35 35 35 35 35 35 35 35 34 34 34
28 28 28 28 28 29 29 30 30 30 31 31 31 32 32 32 32 32 33 33 33 33 33 33 34 34 35 35 35 35 35 35 35 34 34 34 34 34
30 30 30 30 30 30 31 31 32 32 32 32 31 31 32 32 32 32 32 32 33 33 34 34 34 35 34 34 34 34 35 35 35 34 34 34 34 33
32 31 31 32 32 33 32 32 33 33 33 33 33 33 32 32 33 33 33 34 33 33 34 34 34 35 34 34 34 34 35 35 35 34 34 33 33 33
32 32 32 32 33 33 33 33 33 33 33 33 33 33 33 33 33 33 33 33 33 33 33 33 34 34 34 35 34 34 34 35 34 34 34 34 33 32
32 32 32 32 33 33 33 33 33 33 33 33 33 33 33 33 33 32 32 32 32 32 32 33 33 34 34 34 34 34 34 34 34 33 33 34 34 33

GEFSNE_500_meanwind_246.txt.gz
Wind_Speed
12 11 11 12 12 12 13 13 13 14 15 15 14 14 13 14 14 14 15 15 15 16 16 16 16 16 16 16 17 18 19 20 21 22 23 24 25 26
12 12 13 13 13 13 13 14 14 15 15 15 15 15 15 15 15 15 15 15 16 16 16 16 16 16 17 17 18 19 20 20 22 22 24 25 26 26
12 12 13 14 14 14 14 15 15 15 15 16 16 16 16 16 15 15 15 15 16 16 16 17 17 18 18 19 19 20 20 21 22 23 24 25 25 26
13 14 14 15 15 16 16 16 16 16 16 16 17 17 16 16 15 15 15 16 16 17 17 18 18 19 19 20 21 21 22 23 24 24 25 25 26 26
15 15 16 16 16 16 17 17 17 17 17 17 17 17 16 16 16 17 17 17 18 18 18 18 19 20 20 21 22 22 23 23 24 25 25 26 26 27
17 17 18 18 18 17 17 17 17 18 18 17 17 17 17 17 17 18 18 19 20 19 19 19 20 21 22 22 23 23 23 24 25 26 27 27 28 28
18 18 19 19 19 19 18 18 18 18 18 18 18 18 18 18 18 19 19 20 20 20 21 21 22 22 23 23 23 24 25 26 26 27 28 29 29 30
19 19 19 20 19 19 19 18 19 19 19 19 19 19 19 19 20 21 21 21 21 21 22 23 23 23 24 25 25 26 26 27 28 28 29 30 30 30
19 20 20 20 20 20 20 19 19 19 20 20 20 20 21 21 22 22 22 23 23 23 24 25 25 25 25 26 26 27 28 28 29 29 30 31 31 31
20 20 21 21 21 21 21 21 21 21 21 21 22 22 22 22 23 23 23 24 24 25 26 26 27 27 27 28 28 29 29 30 30 31 31 31 31 31
21 21 21 22 22 22 23 23 22 22 23 23 24 24 24 24 24 25 25 25 26 27 27 28 28 28 28 29 30 30 30 31 31 32 32 32 32 32
22 22 22 23 23 23 24 23 23 23 24 24 25 25 25 26 26 26 27 27 28 28 29 29 29 30 29 30 31 31 31 32 32 33 33 33 33 33
23 23 24 24 24 25 25 25 24 25 25 25 26 26 27 27 27 27 28 28 28 28 29 29 30 30 31 31 31 32 32 33 33 33 33 33 34 33
24 24 24 25 25 26 26 26 26 26 26 26 27 27 27 28 28 28 28 28 28 29 29 29 30 31 31 32 32 33 34 34 34 34 34 34 34 33
26 26 26 26 26 27 27 27 27 27 27 27 28 28 28 28 29 29 29 29 29 30 30 31 31 32 32 33 33 33 33 34 34 34 34 34 33 33
28 28 27 27 28 28 28 29 28 28 28 28 29 29 29 29 30 30 30 30 30 31 31 31 32 32 33 34 34 34 34 34 34 34 34 34 33 33
29 29 29 29 29 29 29 29 29 29 29 29 29 30 30 31 31 32 31 31 32 32 33 33 34 33 33 33 33 34 34 34 34 34 34 34 34 33
31 30 30 30 30 30 30 30 30 30 30 30 30 31 31 31 32 33 33 33 33 33 34 35 35 35 34 34 35 34 33 34 34 34 34 34 34 34
31 31 31 31 31 31 31 31 31 31 31 31 32 32 32 33 33 33 33 33 33 33 34 35 35 35 35 35 35 34 34 34 34 34 34 34 34 33
32 32 32 32 32 32 32 32 32 31 31 32 33 34 34 34 34 34 34 34 34 34 34 34 34 35 35 35 34 33 34 34 34 34 34 34 34 33
33 33 33 33 32 33 33 33 33 33 33 34 34 35 35 35 35 35 35 35 35 35 34 34 34 35 34 34 34 33 34 34 34 34 34 34 33 33
34 33 33 33 33 34 33 33 34 34 34 35 35 35 35 35 35 35 35 35 34 34 33 33 33 32 32 33 33 33 33 33 34 34 34 34 34 34
34 34 34 34 34 35 34 34 34 34 35 36 35 35 35 35 35 35 35 34 34 34 34 33 31 31 31 32 33 33 33 34 34 34 35 35 35 34